Location: Menands
(42.6920°N, 73.7246°W)
Time: 01:10:14
(UTC+00:00)

Cosmos 2150 Rocket - Pass Details

Date: 18 February 2026
Orbit: 746 x 802 km, 74.0° (Epoch: 12 March)

Event Time Altitude Azimuth Distance (km) Brightness Sun altitude
Rises 23:11:03 0° 339° (NNW) 3,205 7.4 -8.1°
Reaches altitude 10° 23:13:25 10° 340° (NNW) 2,273 6.6 -8.5°
Maximum altitude 23:18:34 89° 66° (ENE) 752 4.0 -9.5°
Drops below altitude 10° 23:23:42 10° 161° (SSE) 2,258 6.3 -10.4°
Sets 23:26:02 0° 162° (SSE) 3,182 7.1 -10.8°
